| time (UTC) | temp F | wind direction | speed MPH | gust MPH | rain 1hr in | rain 24hr in | rain mn in | humidity % | barometer mb |
| 20260902221559 | 75 | 51 | 0.0 | 4.0 | 0.00 | 0.35 | 0.35 | 86 | 1015.3 |
| 20260902221146 | 75 | 314 | 0.0 | 4.0 | 0.00 | 0.35 | 0.35 | 86 | 1015.5 |
| 20260902220546 | 75 | 14 | 0.0 | 3.0 | 0.00 | 0.35 | 0.35 | 86 | 1015.4 |
| 20260902220056 | 75 | 161 | 0.0 | 4.0 | 0.00 | 0.35 | 0.35 | 86 | 1015.5 |
| 20260902215545 | 75 | 331 | 1.0 | 8.0 | 0.00 | 0.35 | 0.35 | 87 | 1015.6 |
| 20260902215045 | 75 | 132 | 2.0 | 8.0 | 0.00 | 0.35 | 0.35 | 87 | 1015.7 |
| 20260902214545 | 75 | 47 | 2.0 | 4.0 | 0.00 | 0.35 | 0.35 | 87 | 1015.9 |
| 20260902214045 | 75 | 233 | 0.0 | 0.0 | 0.00 | 0.35 | 0.35 | 87 | 1016.0 |
| 20260902213544 | 75 | 228 | 0.0 | 3.0 | 0.00 | 0.35 | 0.35 | 86 | 1016.1 |
| 20260902213044 | 75 | 106 | 0.0 | 3.0 | 0.00 | 0.35 | 0.35 | 86 | 1016.2 |
| 20260902212544 | 75 | 59 | 0.0 | 3.0 | 0.00 | 0.35 | 0.35 | 86 | 1016.0 |
| 20260902212043 | 75 | 202 | 1.0 | 3.0 | 0.00 | 0.35 | 0.35 | 86 | 1016.0 |
| 20260902211544 | 75 | 53 | 1.0 | 3.0 | 0.00 | 0.35 | 0.35 | 86 | 1016.1 |
| 20260902211044 | 75 | 60 | 0.0 | 3.0 | 0.00 | 0.35 | 0.35 | 86 | 1016.1 |
| 20260902210542 | 75 | 61 | 0.0 | 6.0 | 0.00 | 0.35 | 0.35 | 86 | 1016.0 |
| 20260902210046 | 75 | 148 | 1.0 | 8.0 | 0.01 | 0.35 | 0.35 | 86 | 1016.2 |
| 20260902205539 | 75 | 105 | 2.0 | 8.0 | 0.01 | 0.35 | 0.35 | 86 | 1016.3 |
| 20260902205038 | 75 | 174 | 2.0 | 8.0 | 0.01 | 0.35 | 0.35 | 87 | 1016.3 |
| 20260902204540 | 75 | 267 | 2.0 | 10.0 | 0.01 | 0.35 | 0.35 | 87 | 1016.2 |
| 20260902204034 | 75 | 248 | 3.0 | 10.0 | 0.01 | 0.35 | 0.35 | 88 | 1015.9 |
| 20260902203533 | 75 | 213 | 1.0 | 10.0 | 0.01 | 0.35 | 0.35 | 88 | 1015.8 |
| 20260902203034 | 75 | 248 | 2.0 | 8.0 | 0.01 | 0.35 | 0.35 | 88 | 1015.6 |
| 20260902202531 | 75 | 32 | 1.0 | 9.0 | 0.01 | 0.35 | 0.35 | 89 | 1015.8 |
| 20260902202029 | 75 | 355 | 3.0 | 9.0 | 0.01 | 0.35 | 0.35 | 89 | 1015.6 |
| 20260902201541 | 75 | 346 | 1.0 | 7.0 | 0.01 | 0.35 | 0.35 | 90 | 1015.5 |
| 20260902201027 | 75 | 327 | 2.0 | 8.0 | 0.01 | 0.35 | 0.35 | 90 | 1015.7 |
| 20260902200525 | 75 | 96 | 4.0 | 8.0 | 0.00 | 0.34 | 0.34 | 91 | 1016.0 |
| 20260902200024 | 75 | 88 | 2.0 | 9.0 | 0.00 | 0.34 | 0.34 | 91 | 1016.2 |
| 20260902195523 | 75 | 141 | 4.0 | 9.0 | 0.00 | 0.34 | 0.34 | 92 | 1016.3 |
| 20260902195022 | 74 | 51 | 2.0 | 7.0 | 0.00 | 0.34 | 0.34 | 92 | 1016.3 |
| 20260902194529 | 74 | 58 | 1.0 | 6.0 | 0.00 | 0.34 | 0.34 | 92 | 1016.5 |
| 20260902194019 | 74 | 92 | 3.0 | 9.0 | 0.00 | 0.34 | 0.34 | 93 | 1016.6 |
| 20260902193517 | 74 | 137 | 5.0 | 9.0 | 0.00 | 0.34 | 0.34 | 92 | 1016.6 |
| 20260902193035 | 74 | 198 | 0.0 | 4.0 | 0.00 | 0.34 | 0.34 | 93 | 1016.6 |
| 20260902192514 | 74 | 84 | 1.0 | 6.0 | 0.00 | 0.34 | 0.34 | 93 | 1016.8 |
| 20260902192013 | 74 | 217 | 2.0 | 7.0 | 0.00 | 0.34 | 0.34 | 93 | 1016.8 |
| 20260902191513 | 74 | 150 | 0.0 | 7.0 | 0.00 | 0.34 | 0.34 | 93 | 1016.9 |
| 20260902191014 | 74 | 25 | 0.0 | 4.0 | 0.00 | 0.34 | 0.34 | 94 | 1016.8 |
| 20260902190509 | 74 | 18 | 1.0 | 8.0 | 0.00 | 0.34 | 0.34 | 94 | 1016.8 |
| 20260902190012 | 74 | 32 | 3.0 | 8.0 | 0.00 | 0.34 | 0.34 | 94 | 1016.8 |
| 20260902185507 | 74 | 142 | 2.0 | 6.0 | 0.00 | 0.34 | 0.34 | 94 | 1016.8 |
| 20260902185006 | 74 | 100 | 0.0 | 5.0 | 0.00 | 0.34 | 0.34 | 94 | 1016.9 |
| 20260902184502 | 74 | 51 | 1.0 | 11.0 | 0.00 | 0.34 | 0.34 | 94 | 1016.7 |
| 20260902184005 | 73 | 249 | 3.0 | 11.0 | 0.00 | 0.34 | 0.34 | 94 | 1016.7 |
| 20260902183501 | 73 | 294 | 1.0 | 7.0 | 0.00 | 0.34 | 0.34 | 94 | 1016.6 |
| 20260902183001 | 73 | 153 | 4.0 | 10.0 | 0.00 | 0.34 | 0.34 | 94 | 1016.7 |
| 20260902182504 | 73 | 88 | 2.0 | 10.0 | 0.00 | 0.34 | 0.34 | 94 | 1016.8 |
| 20260902182001 | 73 | 209 | 2.0 | 5.0 | 0.00 | 0.34 | 0.34 | 94 | 1016.7 |
| 20260902181612 | 73 | 103 | 1.0 | 7.0 | 0.00 | 0.34 | 0.34 | 94 | 1016.8 |
| 20260902181104 | 73 | 13 | 0.0 | 7.0 | 0.00 | 0.34 | 0.34 | 94 | 1016.7 |
| 20260902180557 | 73 | 33 | 0.0 | 7.0 | 0.00 | 0.34 | 0.34 | 94 | 1016.9 |
| 20260902180100 | 73 | 25 | 2.0 | 7.0 | 0.00 | 0.34 | 0.34 | 94 | 1017.0 |
| 20260902175555 | 73 | 67 | 0.0 | 2.0 | 0.00 | 0.34 | 0.34 | 94 | 1017.1 |
| 20260902175053 | 73 | 69 | 0.0 | 4.0 | 0.00 | 0.34 | 0.34 | 94 | 1017.2 |
| 20260902174552 | 73 | 68 | 1.0 | 5.0 | 0.00 | 0.34 | 0.34 | 94 | 1017.3 |
| 20260902174050 | 73 | 25 | 3.0 | 6.0 | 0.00 | 0.34 | 0.34 | 94 | 1017.4 |
| 20260902173549 | 73 | 42 | 3.0 | 6.0 | 0.00 | 0.34 | 0.34 | 94 | 1017.5 |
| 20260902173047 | 73 | 23 | 2.0 | 5.0 | 0.00 | 0.34 | 0.34 | 94 | 1017.5 |
| 20260902172545 | 73 | 360 | 2.0 | 4.0 | 0.00 | 0.34 | 0.34 | 94 | 1017.6 |
| 20260902172043 | 73 | 19 | 0.0 | 0.0 | 0.00 | 0.34 | 0.34 | 94 | 1017.7 |
| 20260902171552 | 73 | 32 | 0.0 | 0.0 | 0.00 | 0.34 | 0.34 | 94 | 1017.8 |
| 20260902171045 | 73 | 32 | 0.0 | 0.0 | 0.00 | 0.34 | 0.34 | 94 | 1017.9 |
| 20260902170543 | 73 | 46 | 0.0 | 0.0 | 0.00 | 0.34 | 0.34 | 94 | 1017.9 |
| 20260902170042 | 73 | 22 | 0.0 | 0.0 | 0.00 | 0.34 | 0.34 | 94 | 1017.9 |
| 20260902165541 | 73 | 22 | 0.0 | 0.0 | 0.00 | 0.35 | 0.34 | 94 | 1017.9 |
| 20260902165039 | 73 | 21 | 0.0 | 0.0 | 0.00 | 0.35 | 0.34 | 94 | 1018.0 |
| 20260902164541 | 73 | 23 | 0.0 | 0.0 | 0.00 | 0.35 | 0.34 | 94 | 1018.0 |
| 20260902164036 | 73 | 23 | 0.0 | 2.0 | 0.00 | 0.35 | 0.34 | 94 | 1018.0 |
| 20260902163534 | 73 | 17 | 0.0 | 2.0 | 0.01 | 0.35 | 0.34 | 94 | 1018.0 |
| 20260902163038 | 73 | 17 | 0.0 | 2.0 | 0.01 | 0.35 | 0.34 | 94 | 1017.9 |
| 20260902162532 | 73 | 34 | 0.0 | 0.0 | 0.01 | 0.35 | 0.34 | 94 | 1017.9 |
| 20260902162030 | 73 | 355 | 0.0 | 0.0 | 0.01 | 0.35 | 0.34 | 94 | 1017.8 |
| 20260902161529 | 73 | 355 | 0.0 | 0.0 | 0.01 | 0.35 | 0.34 | 94 | 1017.7 |
| 20260902161028 | 73 | 25 | 0.0 | 0.0 | 0.01 | 0.35 | 0.34 | 94 | 1017.6 |
| 20260902160530 | 73 | 5 | 0.0 | 0.0 | 0.02 | 0.35 | 0.34 | 95 | 1017.5 |
| 20260902160025 | 73 | 360 | 0.0 | 0.0 | 0.03 | 0.35 | 0.34 | 94 | 1017.6 |
| 20260902155527 | 73 | 360 | 0.0 | 1.0 | 0.03 | 0.35 | 0.34 | 94 | 1017.6 |
| 20260902155023 | 72 | 360 | 0.0 | 7.0 | 0.03 | 0.35 | 0.34 | 94 | 1017.5 |
| 20260902154523 | 72 | 291 | 0.0 | 4.0 | 0.03 | 0.35 | 0.34 | 94 | 1017.4 |
| 20260902154019 | 72 | 273 | 0.0 | 0.0 | 0.03 | 0.35 | 0.34 | 94 | 1017.3 |
| 20260902153521 | 72 | 273 | 0.0 | 1.0 | 0.02 | 0.34 | 0.33 | 94 | 1017.6 |
| 20260902153039 | 72 | 271 | 0.0 | 4.0 | 0.02 | 0.34 | 0.33 | 94 | 1017.7 |
| 20260902152514 | 72 | 277 | 2.0 | 4.0 | 0.03 | 0.34 | 0.33 | 94 | 1017.9 |
| 20260902152015 | 72 | 314 | 0.0 | 1.0 | 0.13 | 0.34 | 0.33 | 94 | 1017.8 |
| 20260902151512 | 72 | 315 | 0.0 | 2.0 | 0.19 | 0.34 | 0.33 | 94 | 1017.8 |
| 20260902151014 | 72 | 265 | 0.0 | 0.0 | 0.25 | 0.34 | 0.33 | 94 | 1017.7 |
| 20260902150510 | 72 | 217 | 0.0 | 0.0 | 0.32 | 0.33 | 0.32 | 94 | 1017.7 |
| 20260902150011 | 72 | 217 | 0.0 | 0.0 | 0.31 | 0.32 | 0.31 | 94 | 1017.9 |
| 20260902145510 | 72 | 217 | 0.0 | 0.0 | 0.31 | 0.35 | 0.31 | 94 | 1017.9 |
| 20260902145010 | 72 | 218 | 0.0 | 0.0 | 0.31 | 0.35 | 0.31 | 94 | 1017.9 |
| 20260902144509 | 72 | 219 | 0.0 | 0.0 | 0.31 | 0.35 | 0.31 | 94 | 1018.0 |
| 20260902144008 | 72 | 219 | 0.0 | 0.0 | 0.31 | 0.35 | 0.31 | 94 | 1017.8 |
| 20260902143507 | 72 | 219 | 0.0 | 3.0 | 0.31 | 0.35 | 0.31 | 94 | 1017.6 |
| 20260902143006 | 72 | 137 | 0.0 | 4.0 | 0.31 | 0.35 | 0.31 | 94 | 1017.4 |
| 20260902142505 | 72 | 175 | 1.0 | 6.0 | 0.30 | 0.34 | 0.30 | 94 | 1017.5 |
| 20260902142003 | 72 | 262 | 1.0 | 6.0 | 0.19 | 0.23 | 0.19 | 94 | 1017.9 |
| 20260902141504 | 72 | 334 | 0.0 | 4.0 | 0.13 | 0.17 | 0.13 | 94 | 1017.6 |
| 20260902141101 | 72 | 44 | 2.0 | 4.0 | 0.08 | 0.12 | 0.08 | 94 | 1017.4 |
| 20260902140602 | 72 | 207 | 0.0 | 0.0 | 0.00 | 0.04 | 0.00 | 94 | 1017.9 |
| 20260902140057 | 72 | 207 | 0.0 | 2.0 | 0.00 | 0.04 | 0.00 | 94 | 1017.8 |
| 20260902135555 | 72 | 207 | 0.0 | 2.0 | 0.00 | 0.30 | 0.00 | 94 | 1017.9 |
| 20260902135055 | 72 | 207 | 0.0 | 4.0 | 0.00 | 0.30 | 0.00 | 94 | 1018.1 |
| 20260902134556 | 72 | 281 | 0.0 | 3.0 | 0.00 | 0.30 | 0.00 | 94 | 1018.3 |
| 20260902134052 | 72 | 173 | 0.0 | 4.0 | 0.00 | 0.30 | 0.00 | 94 | 1018.2 |
| 20260902133551 | 72 | 267 | 1.0 | 4.0 | 0.00 | 0.30 | 0.00 | 94 | 1018.1 |
| 20260902133049 | 72 | 261 | 2.0 | 6.0 | 0.00 | 0.30 | 0.00 | 94 | 1017.9 |
| 20260902132548 | 72 | 146 | 2.0 | 6.0 | 0.00 | 0.30 | 0.00 | 94 | 1017.5 |
| 20260902132051 | 71 | 320 | 0.0 | 0.0 | 0.00 | 0.30 | 0.00 | 94 | 1017.4 |
| 20260902131549 | 71 | 217 | 0.0 | 0.0 | 0.00 | 0.30 | 0.00 | 94 | 1017.4 |
| 20260902131048 | 71 | 239 | 0.0 | 0.0 | 0.00 | 0.30 | 0.00 | 94 | 1017.9 |
| 20260902130549 | 71 | 239 | 0.0 | 0.0 | 0.00 | 0.30 | 0.00 | 94 | 1017.9 |
| 20260902130048 | 71 | 239 | 0.0 | 0.0 | 0.00 | 0.30 | 0.00 | 94 | 1017.5 |
| 20260902125550 | 71 | 239 | 0.0 | 0.0 | 0.00 | 0.76 | 0.00 | 94 | 1017.6 |
| 20260902125047 | 70 | 239 | 0.0 | 0.0 | 0.00 | 0.76 | 0.00 | 94 | 1017.5 |
| 20260902124547 | 70 | 238 | 0.0 | 0.0 | 0.00 | 0.76 | 0.00 | 94 | 1017.6 |
| 20260902124045 | 70 | 241 | 0.0 | 0.0 | 0.00 | 0.76 | 0.00 | 94 | 1017.6 |
| 20260902123545 | 70 | 241 | 0.0 | 0.0 | 0.00 | 0.76 | 0.00 | 93 | 1017.5 |
| 20260902123052 | 69 | 241 | 0.0 | 0.0 | 0.00 | 0.76 | 0.00 | 93 | 1017.4 |
| 20260902122545 | 69 | 241 | 0.0 | 0.0 | 0.00 | 0.76 | 0.00 | 93 | 1017.3 |
| 20260902122047 | 69 | 241 | 0.0 | 0.0 | 0.00 | 0.76 | 0.00 | 93 | 1017.2 |
| 20260902121544 | 69 | 241 | 0.0 | 0.0 | 0.00 | 0.76 | 0.00 | 93 | 1017.2 |
| 20260902121044 | 69 | 241 | 0.0 | 0.0 | 0.00 | 0.76 | 0.00 | 93 | 1017.1 |
| 20260902120544 | 69 | 241 | 0.0 | 0.0 | 0.00 | 0.76 | 0.00 | 93 | 1017.1 |
| 20260902120043 | 69 | 241 | 0.0 | 0.0 | 0.00 | 0.76 | 0.00 | 93 | 1017.1 |
| 20260902115544 | 69 | 241 | 0.0 | 0.0 | 0.00 | 0.76 | 0.00 | 93 | 1016.9 |
| 20260902115042 | 68 | 241 | 0.0 | 0.0 | 0.00 | 0.76 | 0.00 | 93 | 1017.0 |
| 20260902114544 | 68 | 241 | 0.0 | 0.0 | 0.00 | 0.76 | 0.00 | 93 | 1016.9 |
| 20260902114041 | 68 | 241 | 0.0 | 0.0 | 0.00 | 0.76 | 0.00 | 93 | 1016.9 |
| 20260902113543 | 68 | 241 | 0.0 | 0.0 | 0.00 | 0.76 | 0.00 | 93 | 1017.0 |
| 20260902113042 | 68 | 241 | 0.0 | 0.0 | 0.00 | 0.76 | 0.00 | 93 | 1016.9 |
| 20260902112545 | 68 | 241 | 0.0 | 0.0 | 0.00 | 0.76 | 0.00 | 93 | 1016.9 |
| 20260902112041 | 68 | 241 | 0.0 | 0.0 | 0.00 | 0.76 | 0.00 | 93 | 1016.8 |
| 20260902111541 | 68 | 241 | 0.0 | 0.0 | 0.00 | 0.76 | 0.00 | 93 | 1016.8 |
| 20260902111041 | 68 | 241 | 0.0 | 0.0 | 0.00 | 0.76 | 0.00 | 93 | 1016.8 |
| 20260902110544 | 68 | 241 | 0.0 | 0.0 | 0.00 | 0.76 | 0.00 | 93 | 1016.9 |
| 20260902110045 | 68 | 241 | 0.0 | 0.0 | 0.00 | 0.76 | 0.00 | 93 | 1016.8 |
| 20260902105545 | 68 | 241 | 0.0 | 0.0 | 0.00 | 0.77 | 0.00 | 93 | 1016.9 |
| 20260902105041 | 68 | 241 | 0.0 | 0.0 | 0.00 | 0.77 | 0.00 | 93 | 1016.8 |
| 20260902104541 | 68 | 241 | 0.0 | 0.0 | 0.00 | 0.77 | 0.00 | 93 | 1016.8 |
| 20260902104040 | 68 | 241 | 0.0 | 0.0 | 0.00 | 0.77 | 0.00 | 93 | 1017.0 |
| 20260902103539 | 68 | 241 | 0.0 | 0.0 | 0.00 | 0.77 | 0.00 | 93 | 1017.1 |
| 20260902103039 | 68 | 241 | 0.0 | 0.0 | 0.00 | 0.77 | 0.00 | 93 | 1017.1 |
| 20260902102539 | 68 | 241 | 0.0 | 0.0 | 0.00 | 0.77 | 0.00 | 93 | 1017.1 |
| 20260902102038 | 68 | 241 | 0.0 | 0.0 | 0.00 | 0.77 | 0.00 | 93 | 1017.2 |
| 20260902101538 | 68 | 241 | 0.0 | 0.0 | 0.00 | 0.77 | 0.00 | 93 | 1017.2 |
| 20260902101037 | 68 | 241 | 0.0 | 0.0 | 0.00 | 0.77 | 0.00 | 93 | 1017.2 |
| 20260902100537 | 68 | 241 | 0.0 | 0.0 | 0.00 | 0.77 | 0.00 | 92 | 1017.2 |
| 20260902100037 | 69 | 241 | 0.0 | 0.0 | 0.00 | 0.77 | 0.00 | 92 | 1017.1 |
| 20260902095537 | 69 | 241 | 0.0 | 0.0 | 0.00 | 0.77 | 0.00 | 92 | 1017.1 |
| 20260902095036 | 69 | 241 | 0.0 | 0.0 | 0.00 | 0.77 | 0.00 | 92 | 1017.1 |
| 20260902094536 | 69 | 241 | 0.0 | 0.0 | 0.00 | 0.77 | 0.00 | 93 | 1017.1 |
| 20260902094036 | 69 | 241 | 0.0 | 0.0 | 0.00 | 0.77 | 0.00 | 93 | 1017.0 |
| 20260902093535 | 69 | 241 | 0.0 | 0.0 | 0.00 | 0.77 | 0.00 | 93 | 1017.1 |
| 20260902093038 | 69 | 241 | 0.0 | 0.0 | 0.00 | 0.77 | 0.00 | 93 | 1017.0 |
| 20260902092536 | 69 | 241 | 0.0 | 0.0 | 0.00 | 0.77 | 0.00 | 93 | 1017.0 |
| 20260902092035 | 69 | 241 | 0.0 | 0.0 | 0.00 | 0.77 | 0.00 | 93 | 1017.0 |
| 20260902091534 | 69 | 240 | 0.0 | 0.0 | 0.00 | 0.77 | 0.00 | 93 | 1017.0 |
| 20260902091034 | 69 | 240 | 0.0 | 0.0 | 0.00 | 0.77 | 0.00 | 92 | 1017.0 |
| 20260902090538 | 69 | 240 | 0.0 | 0.0 | 0.00 | 0.77 | 0.00 | 92 | 1017.0 |
| 20260902090036 | 69 | 240 | 0.0 | 0.0 | 0.00 | 0.77 | 0.00 | 92 | 1017.0 |
| 20260902085533 | 69 | 240 | 0.0 | 0.0 | 0.00 | 0.78 | 0.00 | 92 | 1017.1 |
| 20260902085033 | 69 | 240 | 0.0 | 0.0 | 0.00 | 0.78 | 0.00 | 92 | 1017.2 |
| 20260902084533 | 69 | 240 | 0.0 | 0.0 | 0.00 | 0.78 | 0.00 | 92 | 1017.2 |
| 20260902084032 | 69 | 240 | 0.0 | 0.0 | 0.00 | 0.78 | 0.00 | 92 | 1017.2 |
| 20260902083535 | 69 | 240 | 0.0 | 0.0 | 0.00 | 0.78 | 0.00 | 92 | 1017.2 |
| 20260902083031 | 69 | 240 | 0.0 | 0.0 | 0.00 | 0.78 | 0.00 | 92 | 1017.2 |
| 20260902082531 | 69 | 240 | 0.0 | 0.0 | 0.00 | 0.78 | 0.00 | 92 | 1017.1 |
| 20260902082031 | 69 | 240 | 0.0 | 0.0 | 0.00 | 0.78 | 0.00 | 92 | 1017.0 |
| 20260902081532 | 69 | 240 | 0.0 | 0.0 | 0.00 | 0.78 | 0.00 | 92 | 1016.9 |
| 20260902081032 | 69 | 240 | 0.0 | 0.0 | 0.00 | 0.78 | 0.00 | 92 | 1016.8 |
| 20260902080531 | 69 | 240 | 0.0 | 0.0 | 0.00 | 0.78 | 0.00 | 92 | 1016.8 |
| 20260902080032 | 69 | 240 | 0.0 | 0.0 | 0.00 | 0.78 | 0.00 | 92 | 1016.8 |
| 20260902075531 | 69 | 240 | 0.0 | 0.0 | 0.00 | 0.79 | 0.00 | 92 | 1016.8 |
| 20260902075030 | 69 | 240 | 0.0 | 0.0 | 0.00 | 0.79 | 0.00 | 92 | 1016.9 |
| 20260902074530 | 69 | 240 | 0.0 | 0.0 | 0.00 | 0.79 | 0.00 | 92 | 1017.0 |
| 20260902074035 | 69 | 240 | 0.0 | 0.0 | 0.00 | 0.79 | 0.00 | 92 | 1017.0 |
| 20260902073529 | 69 | 240 | 0.0 | 0.0 | 0.00 | 0.79 | 0.00 | 92 | 1017.0 |
| 20260902073029 | 69 | 240 | 0.0 | 0.0 | 0.00 | 0.79 | 0.00 | 92 | 1016.9 |
| 20260902072528 | 69 | 240 | 0.0 | 0.0 | 0.00 | 0.79 | 0.00 | 92 | 1016.8 |
| 20260902072028 | 69 | 240 | 0.0 | 0.0 | 0.00 | 0.79 | 0.00 | 92 | 1016.8 |
| 20260902071528 | 70 | 240 | 0.0 | 0.0 | 0.00 | 0.79 | 0.00 | 92 | 1016.9 |
| 20260902071028 | 70 | 240 | 0.0 | 0.0 | 0.00 | 0.79 | 0.00 | 92 | 1016.9 |
| 20260902070527 | 70 | 240 | 0.0 | 0.0 | 0.00 | 0.79 | 0.00 | 92 | 1016.9 |
| 20260902070031 | 70 | 240 | 0.0 | 0.0 | 0.00 | 0.79 | 0.00 | 92 | 1017.0 |
| 20260902065527 | 70 | 240 | 0.0 | 0.0 | 0.00 | 0.79 | 0.00 | 92 | 1017.0 |
| 20260902065026 | 70 | 240 | 0.0 | 0.0 | 0.00 | 0.79 | 0.00 | 91 | 1017.0 |
| 20260902064526 | 70 | 240 | 0.0 | 0.0 | 0.00 | 0.79 | 0.00 | 92 | 1017.0 |
| 20260902064025 | 70 | 240 | 0.0 | 0.0 | 0.00 | 0.79 | 0.00 | 92 | 1017.1 |
| 20260902063524 | 70 | 238 | 0.0 | 0.0 | 0.00 | 0.79 | 0.00 | 92 | 1017.0 |
| 20260902063025 | 70 | 238 | 0.0 | 0.0 | 0.00 | 0.79 | 0.00 | 91 | 1016.9 |
| 20260902062524 | 70 | 238 | 0.0 | 0.0 | 0.00 | 0.79 | 0.00 | 91 | 1017.0 |
| 20260902062024 | 70 | 238 | 0.0 | 0.0 | 0.00 | 0.79 | 0.00 | 91 | 1017.0 |
| 20260902061544 | 70 | 238 | 0.0 | 0.0 | 0.00 | 0.79 | 0.00 | 91 | 1017.0 |
| 20260902061023 | 71 | 238 | 0.0 | 0.0 | 0.00 | 0.79 | 0.00 | 91 | 1017.2 |
| 20260902060523 | 71 | 238 | 0.0 | 0.0 | 0.00 | 0.79 | 0.00 | 91 | 1017.2 |
| 20260902060025 | 71 | 238 | 0.0 | 0.0 | 0.00 | 0.79 | 0.00 | 91 | 1017.1 |
| 20260902055522 | 71 | 238 | 0.0 | 0.0 | 0.00 | 0.79 | 0.00 | 91 | 1017.1 |
| 20260902055021 | 71 | 238 | 0.0 | 0.0 | 0.00 | 0.79 | 0.00 | 91 | 1017.1 |
| 20260902054521 | 71 | 238 | 0.0 | 0.0 | 0.00 | 0.79 | 0.00 | 91 | 1017.0 |
| 20260902054020 | 71 | 238 | 0.0 | 0.0 | 0.00 | 0.79 | 0.00 | 91 | 1017.0 |
| 20260902053520 | 71 | 238 | 0.0 | 0.0 | 0.00 | 0.79 | 0.00 | 91 | 1017.1 |
| 20260902053026 | 71 | 238 | 0.0 | 0.0 | 0.00 | 0.79 | 0.00 | 91 | 1017.0 |
| 20260902052520 | 71 | 238 | 0.0 | 0.0 | 0.00 | 0.79 | 0.00 | 91 | 1016.9 |
| 20260902052020 | 71 | 238 | 0.0 | 0.0 | 0.00 | 0.79 | 0.00 | 91 | 1016.9 |
| 20260902051518 | 71 | 238 | 0.0 | 0.0 | 0.00 | 0.79 | 0.00 | 91 | 1016.9 |
| 20260902051022 | 72 | 238 | 0.0 | 0.0 | 0.00 | 0.79 | 0.00 | 91 | 1017.0 |
| 20260902050517 | 72 | 238 | 0.0 | 0.0 | 0.00 | 0.79 | 0.00 | 91 | 1016.9 |
| 20260902050017 | 72 | 238 | 0.0 | 0.0 | 0.00 | 0.79 | 0.00 | 91 | 1016.9 |
| 20260902045516 | 72 | 237 | 0.0 | 0.0 | 0.00 | 0.79 | 0.00 | 91 | 1016.8 |
| 20260902045015 | 72 | 237 | 0.0 | 0.0 | 0.00 | 0.79 | 0.00 | 91 | 1016.8 |
| 20260902044515 | 72 | 237 | 0.0 | 0.0 | 0.00 | 0.79 | 0.00 | 91 | 1016.9 |
| 20260902044013 | 72 | 237 | 0.0 | 0.0 | 0.00 | 0.79 | 0.00 | 91 | 1016.9 |
| 20260902043512 | 72 | 237 | 0.0 | 0.0 | 0.00 | 0.79 | 0.00 | 90 | 1016.8 |
| 20260902043010 | 72 | 237 | 0.0 | 0.0 | 0.00 | 0.79 | 0.00 | 90 | 1016.8 |
| 20260902042509 | 72 | 237 | 0.0 | 0.0 | 0.00 | 0.79 | 0.00 | 90 | 1016.8 |
| 20260902042009 | 72 | 237 | 0.0 | 0.0 | 0.00 | 0.79 | 0.00 | 90 | 1016.7 |
| 20260902041506 | 72 | 237 | 0.0 | 0.0 | 0.00 | 0.79 | 0.00 | 90 | 1016.6 |
| 20260902041004 | 73 | 237 | 0.0 | 0.0 | 0.00 | 0.79 | 0.00 | 90 | 1016.5 |
| 20260902040503 | 73 | 237 | 0.0 | 0.0 | 0.00 | 0.79 | 0.00 | 90 | 1016.5 |
| 20260902040001 | 73 | 237 | 0.0 | 0.0 | 0.00 | 0.79 | 0.00 | 90 | 1016.4 |
| 20260902035501 | 73 | 237 | 0.0 | 0.0 | 0.00 | 0.80 | 0.79 | 90 | 1016.4 |
| 20260902035001 | 73 | 237 | 0.0 | 0.0 | 0.00 | 0.80 | 0.79 | 90 | 1016.4 |
| 20260902034501 | 73 | 237 | 0.0 | 0.0 | 0.00 | 0.80 | 0.79 | 90 | 1016.4 |
| 20260902034001 | 73 | 237 | 0.0 | 0.0 | 0.00 | 0.80 | 0.79 | 90 | 1016.5 |
| 20260902033601 | 73 | 237 | 0.0 | 0.0 | 0.00 | 0.80 | 0.79 | 89 | 1016.5 |
| 20260902033100 | 73 | 237 | 0.0 | 0.0 | 0.00 | 0.80 | 0.79 | 89 | 1016.4 |
| 20260902032600 | 72 | 175 | 0.0 | 0.0 | 0.00 | 0.80 | 0.79 | 89 | 1016.4 |
| 20260902032100 | 72 | 144 | 0.0 | 0.0 | 0.00 | 0.80 | 0.79 | 89 | 1016.3 |
| 20260902031600 | 73 | 144 | 0.0 | 0.0 | 0.00 | 0.80 | 0.79 | 89 | 1016.2 |
| 20260902031102 | 73 | 144 | 0.0 | 0.0 | 0.00 | 0.80 | 0.79 | 89 | 1016.2 |
| 20260902030559 | 73 | 144 | 0.0 | 0.0 | 0.00 | 0.80 | 0.79 | 89 | 1016.1 |
| 20260902030100 | 73 | 144 | 0.0 | 0.0 | 0.00 | 0.80 | 0.79 | 89 | 1016.1 |
| 20260902025700 | 73 | 144 | 0.0 | 0.0 | 0.00 | 0.80 | 0.79 | 88 | 1016.0 |
| 20260902025059 | 73 | 144 | 0.0 | 0.0 | 0.00 | 0.80 | 0.79 | 88 | 1015.9 |
| 20260902024600 | 73 | 144 | 0.0 | 0.0 | 0.00 | 0.80 | 0.79 | 88 | 1015.8 |
| 20260902024100 | 73 | 144 | 0.0 | 0.0 | 0.00 | 0.80 | 0.79 | 88 | 1015.8 |
| 20260902023558 | 73 | 144 | 0.0 | 0.0 | 0.00 | 0.80 | 0.79 | 88 | 1016.0 |
| 20260902023109 | 74 | 144 | 0.0 | 0.0 | 0.00 | 0.80 | 0.79 | 88 | 1016.0 |
| 20260902022558 | 74 | 144 | 0.0 | 0.0 | 0.00 | 0.80 | 0.79 | 88 | 1016.0 |
| 20260902022057 | 74 | 144 | 0.0 | 0.0 | 0.00 | 0.80 | 0.79 | 88 | 1016.1 |
| 20260902021559 | 74 | 144 | 0.0 | 0.0 | 0.00 | 0.80 | 0.79 | 88 | 1016.0 |
| 20260902021057 | 74 | 144 | 0.0 | 0.0 | 0.00 | 0.80 | 0.79 | 88 | 1016.1 |
| 20260902020600 | 74 | 144 | 0.0 | 0.0 | 0.00 | 0.80 | 0.79 | 88 | 1016.0 |
| 20260902020057 | 74 | 144 | 0.0 | 0.0 | 0.00 | 0.80 | 0.79 | 88 | 1016.0 |
| 20260902015557 | 74 | 144 | 0.0 | 0.0 | 0.00 | 0.80 | 0.79 | 88 | 1015.8 |
| 20260902015057 | 74 | 144 | 0.0 | 0.0 | 0.00 | 0.80 | 0.79 | 88 | 1015.8 |
| 20260902014557 | 75 | 144 | 0.0 | 0.0 | 0.00 | 0.80 | 0.79 | 88 | 1015.8 |
| 20260902014056 | 75 | 144 | 0.0 | 0.0 | 0.00 | 0.80 | 0.79 | 88 | 1015.8 |
| 20260902013557 | 75 | 144 | 0.0 | 0.0 | 0.00 | 0.80 | 0.79 | 88 | 1015.6 |
| 20260902013058 | 75 | 144 | 0.0 | 0.0 | 0.00 | 0.80 | 0.79 | 88 | 1015.6 |
| 20260902012558 | 75 | 144 | 0.0 | 0.0 | 0.00 | 0.80 | 0.79 | 88 | 1015.6 |
| 20260902012055 | 75 | 144 | 0.0 | 0.0 | 0.00 | 0.80 | 0.79 | 87 | 1015.6 |
| 20260902011555 | 75 | 144 | 0.0 | 0.0 | 0.00 | 0.80 | 0.79 | 87 | 1015.5 |
| 20260902011057 | 75 | 144 | 0.0 | 0.0 | 0.00 | 0.80 | 0.79 | 87 | 1015.5 |
| 20260902010554 | 75 | 144 | 0.0 | 0.0 | 0.00 | 0.80 | 0.79 | 87 | 1015.5 |
| 20260902010055 | 75 | 144 | 0.0 | 0.0 | 0.00 | 0.80 | 0.79 | 87 | 1015.5 |
| 20260902005555 | 75 | 83 | 0.0 | 0.0 | 0.00 | 0.81 | 0.79 | 86 | 1015.4 |
| 20260902005056 | 76 | 83 | 0.0 | 0.0 | 0.00 | 0.81 | 0.79 | 86 | 1015.4 |
| 20260902004555 | 76 | 83 | 0.0 | 0.0 | 0.00 | 0.81 | 0.79 | 85 | 1015.3 |
| 20260902004053 | 76 | 83 | 0.0 | 0.0 | 0.00 | 0.81 | 0.79 | 85 | 1015.3 |
| 20260902003554 | 76 | 83 | 0.0 | 0.0 | 0.00 | 0.81 | 0.79 | 85 | 1015.2 |
| 20260902003054 | 76 | 83 | 0.0 | 0.0 | 0.00 | 0.81 | 0.79 | 85 | 1015.0 |
| 20260902002553 | 76 | 83 | 0.0 | 0.0 | 0.00 | 0.81 | 0.79 | 84 | 1014.9 |
| 20260902002053 | 77 | 83 | 0.0 | 0.0 | 0.00 | 0.81 | 0.79 | 84 | 1014.9 |
| 20260902001610 | 77 | 83 | 0.0 | 0.0 | 0.00 | 0.81 | 0.79 | 84 | 1014.8 |
| 20260902001057 | 77 | 83 | 0.0 | 0.0 | 0.00 | 0.81 | 0.79 | 84 | 1014.7 |
| 20260902000553 | 77 | 83 | 0.0 | 0.0 | 0.00 | 0.81 | 0.79 | 83 | 1014.6 |
| 20260902000057 | 77 | 83 | 0.0 | 0.0 | 0.00 | 0.81 | 0.79 | 83 | 1014.5 |
| 20260901235552 | 78 | 83 | 0.0 | 0.0 | 0.00 | 0.81 | 0.79 | 83 | 1014.5 |
| 20260901235053 | 78 | 83 | 0.0 | 0.0 | 0.00 | 0.81 | 0.79 | 83 | 1014.6 |
| 20260901234552 | 78 | 83 | 0.0 | 0.0 | 0.00 | 0.81 | 0.79 | 83 | 1014.7 |
| 20260901234053 | 79 | 83 | 0.0 | 0.0 | 0.00 | 0.81 | 0.79 | 82 | 1014.7 |
| 20260901233553 | 79 | 83 | 0.0 | 0.0 | 0.00 | 0.81 | 0.79 | 82 | 1014.7 |
| 20260901233055 | 79 | 83 | 0.0 | 0.0 | 0.00 | 0.81 | 0.79 | 82 | 1014.8 |
| 20260901232551 | 79 | 83 | 0.0 | 0.0 | 0.00 | 0.81 | 0.79 | 82 | 1014.8 |
| 20260901232051 | 80 | 83 | 0.0 | 0.0 | 0.00 | 0.81 | 0.79 | 81 | 1014.8 |
| 20260901231556 | 80 | 83 | 0.0 | 0.0 | 0.00 | 0.81 | 0.79 | 81 | 1014.6 |
| 20260901231050 | 80 | 83 | 0.0 | 0.0 | 0.00 | 0.81 | 0.79 | 81 | 1014.4 |
| 20260901230550 | 81 | 83 | 0.0 | 0.0 | 0.00 | 0.81 | 0.79 | 81 | 1014.3 |
| 20260901230051 | 81 | 83 | 0.0 | 0.0 | 0.00 | 0.81 | 0.79 | 81 | 1014.2 |
| 20260901225549 | 81 | 83 | 0.0 | 0.0 | 0.00 | 0.83 | 0.79 | 81 | 1014.4 |
| 20260901225049 | 81 | 83 | 0.0 | 0.0 | 0.00 | 0.83 | 0.79 | 81 | 1014.3 |
| 20260901224550 | 82 | 83 | 0.0 | 0.0 | 0.00 | 0.83 | 0.79 | 81 | 1014.3 |
| 20260901224048 | 82 | 82 | 0.0 | 0.0 | 0.00 | 0.83 | 0.79 | 81 | 1014.4 |
| 20260901223548 | 82 | 82 | 0.0 | 0.0 | 0.00 | 0.83 | 0.79 | 81 | 1014.3 |
| 20260901223051 | 82 | 82 | 0.0 | 0.0 | 0.00 | 0.83 | 0.79 | 81 | 1014.3 |
| 20260901222547 | 82 | 82 | 0.0 | 0.0 | 0.00 | 0.83 | 0.79 | 81 | 1014.1 |
| 20260901222049 | 82 | 74 | 0.0 | 0.0 | 0.00 | 0.83 | 0.79 | 81 | 1014.2 |